Middletown, PA

11:41 AM EDT on May 23, 2018 (GMT -0400)
Harrisburg International

Weather History for KMDT - July, 2013

Change the Weather History Date:

Wednesday, July 31, 2013

  Actual Average Record
Temperature  
Mean Temperature 72 °F 76 °F  
Max Temperature 81 °F 85 °F 100 °F (1954)
Min Temperature 62 °F 66 °F 53 °F (1895)
Degree Days  
Heating Degree Days 0 0  
Month to date heating degree days 0 0  
Since 1 June heating degree days 2 18  
Since 1 July heating degree days 0 0  
Cooling Degree Days 7 11  
Month to date cooling degree days 408 338  
Year to date cooling degree days 715 616  
Since 1 June cooling degree days 632 551  
Growing Degree Days 22 (Base 50)    
Moisture  
Dew Point 62 °F    
Average Humidity 72    
Maximum Humidity 90    
Minimum Humidity 54    
Precipitation  
Precipitation 0.00 in 0.14 in 1.58 in (1892)
Month to date precipitation 5.23 4.61  
Year to date precipitation 21.16 23.74  
Sea Level Pressure  
Sea Level Pressure 30.10 in    
Wind  
Wind Speed 3 mph (South)    
Max Wind Speed 12 mph    
Max Gust Speed 16 mph    
Visibility 9 miles    
Events      
T = Trace of Precipitation, MM = Missing Value Source: NWS Daily Summary

Daily Weather History Graph

Daily Weather History Graph

Search for Another Location

Airport or City:

Astronomy

Jul. 31, 2013 Rise Set
Actual Time 6:04 AM EDT 8:21 PM EDT
Civil Twilight 5:33 AM EDT 8:52 PM EDT
Nautical Twilight 4:56 AM EDT 9:29 PM EDT
Astronomical Twilight 4:14 AM EDT 10:11 PM EDT
Moon 12:58 AM EDT (7/31) 3:36 PM EDT (7/31)
Length of Visible Light 15h 18m
Length of Day
14h 17m
Waning Crescent, 32% of the Moon is Illuminated
Jul 31
Waning Crescent
Aug 6
New
Aug 14
First Quarter
Aug 20
Full
Aug 28
Last Quarter

Hourly Weather History & Observations

Time (EDT) Temp. Heat Index Dew Point Humidity Pressure Visibility Wind Dir Wind Speed Gust Speed Precip Events Conditions
12:56 AM 64.9 °F - 60.1 °F 84% 30.15 in 10.0 mi Calm Calm - N/A   Mostly Cloudy
1:56 AM 64.0 °F - 59.0 °F 84% 30.15 in 10.0 mi Calm Calm - N/A   Mostly Cloudy
2:56 AM 64.9 °F - 60.1 °F 84% 30.15 in 10.0 mi Calm Calm - N/A   Mostly Cloudy
3:56 AM 64.9 °F - 61.0 °F 87% 30.14 in 10.0 mi Calm Calm - N/A   Mostly Cloudy
4:56 AM 64.0 °F - 59.0 °F 84% 30.15 in 10.0 mi Calm Calm - N/A   Mostly Cloudy
5:56 AM 63.0 °F - 59.0 °F 87% 30.15 in 10.0 mi Calm Calm - N/A   Mostly Cloudy
6:56 AM 63.0 °F - 59.0 °F 87% 30.16 in 10.0 mi Calm Calm - N/A   Mostly Cloudy
7:56 AM 66.9 °F - 60.1 °F 79% 30.16 in 9.0 mi Calm Calm - N/A   Mostly Cloudy
8:56 AM 68.0 °F - 60.1 °F 76% 30.16 in 8.0 mi Calm Calm - N/A   Mostly Cloudy
9:56 AM 72.0 °F - 62.1 °F 71% 30.15 in 7.0 mi Calm Calm - N/A   Mostly Cloudy
10:56 AM 75.9 °F - 63.0 °F 64% 30.14 in 7.0 mi Calm Calm - N/A   Mostly Cloudy
11:56 AM 77.0 °F - 62.1 °F 60% 30.13 in 8.0 mi Calm Calm - N/A   Mostly Cloudy
12:56 PM 78.1 °F - 64.0 °F 62% 30.11 in 9.0 mi Calm Calm - N/A   Overcast
1:56 PM 78.1 °F - 64.9 °F 64% 30.09 in 8.0 mi SSE 3.5 mph - N/A   Overcast
2:56 PM 81.0 °F 82.2 °F 63.0 °F 54% 30.08 in 10.0 mi SSW 5.8 mph - N/A   Overcast
3:56 PM 79.0 °F - 64.0 °F 60% 30.06 in 10.0 mi Variable 5.8 mph - N/A   Overcast
4:56 PM 79.0 °F - 64.0 °F 60% 30.05 in 10.0 mi SW 5.8 mph - N/A   Mostly Cloudy
5:56 PM 78.1 °F - 64.0 °F 62% 30.04 in 10.0 mi SSW 8.1 mph - N/A   Overcast
6:56 PM 77.0 °F - 64.0 °F 64% 30.02 in 10.0 mi SSE 4.6 mph - N/A   Overcast
7:56 PM 75.9 °F - 64.0 °F 67% 30.01 in 10.0 mi South 4.6 mph - N/A   Mostly Cloudy
8:56 PM 73.9 °F - 64.9 °F 73% 30.01 in 10.0 mi SSE 5.8 mph - N/A   Mostly Cloudy
9:56 PM 73.9 °F - 64.9 °F 73% 30.02 in 10.0 mi SE 5.8 mph - N/A   Mostly Cloudy
10:56 PM 73.0 °F - 64.9 °F 76% 30.01 in 10.0 mi SSE 5.8 mph - N/A   Overcast
11:56 PM 72.0 °F - 64.9 °F 78% 30.00 in 10.0 mi SSE 8.1 mph - N/A   Overcast